Regional Weather Roundup
Issued by NWS

Home | Current Version | Previous Version | Text Only | Print | Product List | Glossary Off
Versions: 1 2 3 4 5 6 7 8 9 10 11 12 13 14 15 16 17 18 19 20 21 22 23 24 25 26 27 28 29 30 31 32 33 34 35 36 37 38 39 40 41 42 43 44 45 46 47 48 49 50

000
ASUS43 KMKX 111111
RWRWI

WISCONSIN REGIONAL WEATHER ROUNDUP
NATIONAL WEATHER SERVICE MILWAUKEE/SULLIVAN WI
600 AM CDT FRI JUL 11 2014

NOTE: "FAIR" INDICATES FEW OR NO CLOUDS BELOW 12,000 FEET WITH NO
SIGNIFICANT WEATHER AND/OR OBSTRUCTIONS TO VISIBILITY.

WIZ001-002-006>008-014>016-023>028-111200-
NORTHWEST WISCONSIN

CITY           SKY/WX    TMP DP  RH WIND       PRES   REMARKS
SUPERIOR ARPT  RAIN      57  57  99 NW3       29.95F
ASHLAND        LGT RAIN  65  63  93 S9        30.02R FOG
HAYWARD        RAIN      65  62  90 S9        30.05R
SIREN          HVY RAIN  65  62  91 S8        30.00S
RICE LAKE      LGT RAIN  65  60  82 SE7       30.06R
LADYSMITH      CLOUDY    66  59  78 S7        30.10R
EAU CLAIRE     CLOUDY    67  61  81 S8        30.06R
MENOMONIE      CLOUDY    69  58  67 S14       30.05R
NEW RICHMOND   CLOUDY    69  58  67 S15G21    30.00S
OSCEOLA        CLOUDY    71  59  66 S17G24    30.01S
$$

WIZ003>005-009-010-017-018-111200-
NORTH CENTRAL WISCONSIN

CITY           SKY/WX    TMP DP  RH WIND       PRES   REMARKS
WOODRUFF       CLOUDY    64  60  87 S9        30.10R
RHINELANDER    MOCLDY    63  59  87 SW8       30.12R
EAGLE RIVER    MOCLDY    60  60  97 CALM      30.11R
LAND O LAKES   MOCLDY    60  59  97 CALM      30.11R
PHILLIPS       CLOUDY    64  59  84 S6        30.09R
TOMAHAWK       MOCLDY    61  59  94 CALM      30.12R
MEDFORD        PTCLDY    60  59  94 S8        30.12R
MERRILL        PTCLDY    63  60  90 S5        30.12R
$$

WIZ029-030-035-036-043>047-111200-
CENTRAL WISCONSIN

CITY           SKY/WX    TMP DP  RH WIND       PRES   REMARKS
WAUSAU         CLEAR     63  59  87 SW5       30.11S
MOSINEE        CLEAR     63  61  94 S8        30.14R
MARSHFIELD     CLEAR     60  58  92 S6        30.11F
STEVENS POINT  CLEAR     61  58  89 S6        30.14R
WAUPACA        CLEAR     62  59  91 S3        30.14S
WAUTOMA        CLEAR     57  56  97 CALM      30.15R
WISC RAPIDS    CLEAR     63  59  87 S6        30.14R
CAMP DOUGLAS   PTCLDY    64  61  88 S8        30.12S
$$

WIZ011>013-019>022-031-037>040-048>050-111200-
NORTHEAST WISCONSIN

CITY           SKY/WX    TMP DP  RH WIND       PRES   REMARKS
ANTIGO         PTCLDY    59  58  97 S7        30.14S
STURGEON BAY   CLOUDY    63  46  55 S9        30.15R
GREEN BAY      MOCLDY    62  54  74 S7        30.15R
MANITOWOC      MOCLDY    58  53  84 SE5       30.16S
APPLETON       PTCLDY    63  54  72 SW6       30.15S
CLINTONVILLE   PTCLDY    59  55  88 CALM      30.13F
OSHKOSH        PTCLDY    62  54  74 S10       30.15R
$$

WIZ032>034-041-042-053>061-111200-
SOUTHWEST WISCONSIN

CITY           SKY/WX    TMP DP  RH WIND       PRES   REMARKS
LA CROSSE      CLOUDY    70  59  68 S13       30.09R
SPARTA         MOCLDY    66  56  71 CALM      30.12S
VIROQUA        PTSUNNY   64  58  81 S7        30.13S
BOSCOBEL       CLOUDY    65  60  84 CALM      30.13S
PRAIRIE DU CHI MOCLDY    66  58  75 E3        30.12S
PLATTEVILLE    FAIR      63  60  90 SE7       30.16S
$$

WIZ056-057-062-063-064-067-068-111200-
SOUTH CENTRAL WISCONSIN

CITY           SKY/WX    TMP DP  RH WIND       PRES   REMARKS
BARABOO/DELLS  CLEAR     63  57  81 S6        30.14S
LONE ROCK      MOCLDY    69  59  70 CALM      30.15R
WATERTOWN      CLOUDY    59  53  78 CALM      30.17R
MADISON        PTCLDY    64  56  75 S7        30.17R
MIDDLETON      FAIR      62  56  81 CALM      30.17S
MONROE         CLEAR     59  55  88 S7        30.17S
JANESVILLE     CLEAR     59  52  77 CALM      30.18R
$$

WIZ051-052-058>065-066-070>072-111200-
SOUTHEAST WISCONSIN

CITY           SKY/WX    TMP DP  RH WIND       PRES   REMARKS
MILWAUKEE      CLEAR     61  52  72 S6        30.18S
WAUKESHA       MOCLDY    61  48  63 S6        30.19S
MILWAUKEE/TIMM MOCLDY    61  46  59 CALM      30.19R
RACINE         CLEAR     60  56  86 S3        30.20S
BURLINGTON     CLEAR     52  51  98 CALM      30.19R
KENOSHA        CLEAR     57  53  86 SW5       30.19R
FOND DU LAC    PTCLDY    59  53  80 S6        30.16S
SHEBOYGAN      CLEAR     57  51  80 S5        30.17R
WEST BEND      MOCLDY    57  48  72 CALM      30.18R
JUNEAU         PTCLDY    60  38  43 S7        30.18S
$$

LSZ147-162-111200-
LAKE SUPERIOR

STATION/POSITION TIME  TEMP    WIND        PRES    WAVE
                       AIR SEA DIR/SP/G            HT/PER
                 (UTC) (F)     (DEG/KT/KT) (MB)    (FT/S)
W MID LAKE BUOY  1050   48 38  210/ 12/ 12 1015.9R   1/ 2
PORT WING        1020   65     330/ 10/ 17 1015.6R
SAXON HARBOR     1000          200/  7/ 12 1015.9S
$$

LMZ867-665-643>646-111200-
LAKE MICHIGAN

STATION/POSITION TIME  TEMP    WIND        PRES    WAVE
                       AIR SEA DIR/SP/G            HT/PER
                 (UTC) (F)     (DEG/KT/KT) (MB)    (FT/S)
N MID LAKE BUOY  1050   58 54  190/ 14/ 16 1020.3F   1/ 3
NORTHPORT PIER   1000   62     150/  6/ 10 1020.3S
KEWAUNEE LAKESHO 1000   53     170/  9/ 10 1021.6R
SHEBOYGAN LAKESH 1100   62     200/  8/  8 1021.7R
PORT WASHINGTON  1000   59     250/  1/  2 1022.4S
MILWAUKEE LAKESH 1000   60     170/  6/  6   N/A
S MID LAKE BUOY  1050   61 58  150/  4/  4 1022.5R   0
KENOSHA   LAKESH 1100   63     200/  5/  6   N/A
$$

TC  - TEMPERATURE IN CELSIUS
VSB - VISIBILITY IN STATUTE MILES
WCI - WIND CHILL INDEX
HX  - HEAT INDEX




USA.gov is the U.S. government's official web portal to all federal, state and local government web resources and services.